Location: Bougoura
(13.1861°N, 5.0773°W)
Time: 17:09:39
(UTC+00:00)

Okean O Rocket - Pass Details

Date: 18 September 2020
Orbit: 622 x 645 km, 98.2° (Epoch: 24 October)

Event Time Altitude Azimuth Distance (km) Brightness Sun altitude
Rises 18:36:01 0° 189° (S) 2,935 5.1 -5.0°
Reaches altitude 10° 18:38:27 10° 200° (SSW) 2,030 4.4 -5.6°
Maximum altitude 18:42:16 29° 260° (W) 1,183 4.0 -6.5°
Drops below altitude 10° 18:46:07 10° 320° (NW) 2,037 4.9 -7.4°
Sets 18:48:34 0° 331° (NNW) 2,947 5.5 -8.0°
